Regional Weather Roundup
Issued by NWS

Home | Current Version | Previous Version | Graphics & Text | Print | Product List | Glossary On
Versions: 1 2 3 4 5 6 7 8 9 10 11 12 13 14 15 16 17 18 19 20 21 22 23 24 25 26 27 28 29 30 31 32 33 34 35 36 37 38 39 40 41 42 43 44 45 46 47 48 49 50
123
ASUS45 KBOU 272010
RWRCO

WEATHER ROUNDUP FOR COLORADO
NATIONAL WEATHER SERVICE DENVER/BOULDER CO
200 PM MDT TUE SEP 27 2016

NOTE: "FAIR" INDICATES FEW OR NO CLOUDS BELOW 12000 FEET WITH NO
SIGNIFICANT WEATHER AND/OR OBSTRUCTIONS TO VISIBILITY.

COZ001>005-013-030-031-272100-
...NORTHWEST COLORADO...

CITY           SKY/WX    TMP DP  RH WIND       PRES   REMARKS
CRAIG          FAIR      75  27  17 VRB6      30.26F
HAYDEN         FAIR      72  28  20 W10       30.28F
MEEKER         FAIR      74  33  22 W9        30.26F
MOUNT WERNER   NOT AVBL
STEAMBOAT SPGS FAIR      71  31  22 W7        30.28F
WALDEN           N/A     70  23  17 NW3       30.36F
$$

COZ006>008-011-272100-
...WEST CENTRAL VALLEYS...

CITY           SKY/WX    TMP DP  RH WIND       PRES   REMARKS
GRAND JUNCTION FAIR      76  36  23 VRB5      30.19F
MONTROSE       FAIR      73  36  25 NW8       30.23F
EAGLE          SUNNY     72  30  21 CALM      30.28F
RIFLE          FAIR      74  34  23 W5        30.21F
DELTA          FAIR      78  34  20 CALM      30.20F
NUCLA          FAIR      73  32  21 N7        30.28F
$$

COZ017>023-064>068-272100-
...SOUTHWEST COLORADO...

CITY           SKY/WX    TMP DP  RH WIND       PRES   REMARKS
DURANGO        FAIR      72  32  23 SW8       30.30F
CORTEZ         FAIR      74  35  24 SW12      30.26F
PAGOSA SPRINGS FAIR      69  28  21 W7        30.35F
TELLURIDE      FAIR      67  33  28 W12       30.42F
WOLF CREEK PAS FAIR      50  32  50 S7G18     30.63F
$$

COZ009-010-012-014-032>034-037-058>063-272100-
...CENTRAL COLORADO...

CITY           SKY/WX    TMP DP  RH WIND       PRES   REMARKS
ASPEN          FAIR      72  30  21 NW9       30.31F
BUENA VISTA    FAIR      73  19  13 SE5       30.30F
COPPER MTN     FAIR      59  18  20 W6G16     30.62S
BERTHOUD PASS  FAIR      48  34  57 N8G26     30.64F
COTTONWOOD PAS FAIR      72  12  10 SE8G20    30.44F
GUNNISON       FAIR      70  32  24 CALM      30.33F
KREMMLING      FAIR      73  18  12 NW3       30.31F
LEADVILLE      FAIR      64  17  16 CALM      30.42F
SALIDA         FAIR      77  22  13 SE7       30.35F
SUNLIGHT       FAIR      59  32  36 W5        30.57S
WILKERSON PASS FAIR      59  18  20 S3        30.58F
$$

COZ069>075-272100-
...SAN LUIS VALLEY/SANGRE DE CRISTO MOUNTAINS...

CITY           SKY/WX    TMP DP  RH WIND       PRES   REMARKS
ALAMOSA        FAIR      70  30  22 CALM      30.33F
LA VETA PASS   FAIR      63  30  29 MISG      30.49F
SAGUACHE       NOT AVBL
$$

COZ035-036-038>040-272100-
...NORTHERN COLORADO FRONT RANGE...

CITY           SKY/WX    TMP DP  RH WIND       PRES   REMARKS
DENVER INTL AP FAIR      79  29  16 E6        30.17F
DMNS CITY PARK   N/A     79  28  15 N3G10     30.17F
AURORA         MOSUNNY   80  29  15 SE6       30.19F
FRONT RANGE AP MOSUNNY   81  28  15 N6        30.18F
ERIE MUNI ARPT FAIR      79  27  14 CALM      30.16F
BOULDER MUN AP FAIR      79  32  18 E6        30.17F
CENTENNIAL     FAIR      77  27  15 VRB3      30.20F
BROOMFIELD     MOSUNNY  N/A N/A N/A SE5       30.20F
FORT COLLINS   FAIR      81  36  19 S8        30.13F
LONGMONT       FAIR      82  32  17 E3        30.17F
$$

COZ041-046-047-076>085-087-088-272100-
...PIKES PEAK/PALMER DIVIDE AND SOUTHERN FOOTHILLS...

CITY           SKY/WX    TMP DP  RH WIND       PRES   REMARKS
COLO. SPRINGS  FAIR      77  28  16 SE12      30.22F
A. F. ACADEMY  FAIR      76  30  18 VRB2      30.23F
SCHRIEVER AFB  NOT AVBL
ELLICOTT       NOT AVBL
FALCON         FAIR      75  27  17 S6        30.28F
FORT CARSON    FAIR      79  29  16 VRB6      30.19F
LIMON          FAIR      82  27  13 S10       30.16F
MONUMENT HILL  FAIR      72  27  18 CALM      30.29F
TRINIDAD       FAIR      79  27  14 VRB3      30.19F
$$

COZ042>045-048>051-090-091-272100-
...NORTHEAST COLORADO...

CITY           SKY/WX    TMP DP  RH WIND       PRES   REMARKS
GREELEY ARPT   FAIR      79  37  22 S3        30.14F
AKRON          FAIR      78  32  18 VRB5      30.13F
BURLINGTON     FAIR      82  32  16 W7        30.11F
WRAY           FAIR      86  30  13 W3        30.08F
STERLING       FAIR      84  37  18 SW9       30.08F
HOLYOKE        FAIR      86  34  15 W9        30.07F
FORT MORGAN    FAIR      82  30  15 S5        30.13F
$$

COZ086-089-092>099-272100-
...SOUTHEAST COLORADO...

CITY           SKY/WX    TMP DP  RH WIND       PRES   REMARKS
PUEBLO         FAIR      83  32  16 SE6G16    30.12F
LA JUNTA       FAIR      83  34  17 S8        30.11F
LAMAR          FAIR      86  34  15 SW8       30.08F
SPRINGFIELD    NOT AVBL
$$




USA.gov is the U.S. government's official web portal to all federal, state and local government web resources and services.